Station Historical Data
Daily Summary for July 27, 2017 Units:  English    Metric   Both
« Previous Day
Next Day »
Daily Weekly Monthly Yearly Custom
  High: Low: Average:
Temperature: 88.9 °F 68.0 °F 77.4 °F
Dew Point: 58.9 °F 41.5 °F 49.2 °F
Humidity: 58 % 25 % 38 %
Wind Speed: 15.0 mph 0.0 mph 2.7 mph
Wind Gust: 16.0 mph - -
Wind:- - SSE
Pressure: 29.97 in 29.87 in -
Precipitation: 0.00 in    
Historical Graphs
 
 
Tabular Data for July 27, 2017
Time Temperature Dew Point Pressure Wind Wind Speed Wind Gust Humidity Rainfall Rate (Hourly) solar
00:01 71.6 °F 49.2 °F 29.97 in East 8.0 mph 8.0 mph 45 % 0.00 in 0.00 W/m2
00:06 71.6 °F 49.2 °F 29.97 in East 8.0 mph 8.0 mph 45 % 0.00 in 0.00 W/m2
00:11 71.6 °F 49.2 °F 29.97 in East 11.0 mph 11.0 mph 45 % 0.00 in 0.00 W/m2
00:16 71.6 °F 49.2 °F 29.97 in East 7.0 mph 11.0 mph 45 % 0.00 in 0.00 W/m2
00:21 71.6 °F 49.2 °F 29.97 in East 6.0 mph 12.0 mph 45 % 0.00 in 0.00 W/m2
00:26 71.6 °F 48.6 °F 29.97 in Calm   5.0 mph 44 % 0.00 in 0.00 W/m2
00:31 71.6 °F 48.6 °F 29.97 in Calm     44 % 0.00 in 0.00 W/m2
00:36 71.6 °F 48.6 °F 29.97 in Calm   2.0 mph 44 % 0.00 in 0.00 W/m2
00:41 71.6 °F 48.6 °F 29.97 in ESE 1.0 mph 7.0 mph 44 % 0.00 in 0.00 W/m2
00:46 71.6 °F 48.6 °F 29.97 in Calm   10.0 mph 44 % 0.00 in 0.00 W/m2
00:51 71.6 °F 48.6 °F 29.97 in Calm   11.0 mph 44 % 0.00 in 0.00 W/m2
00:56 71.6 °F 48.6 °F 29.96 in ESE 4.0 mph 9.0 mph 44 % 0.00 in 0.00 W/m2
01:01 71.6 °F 48.6 °F 29.96 in East 15.0 mph 15.0 mph 44 % 0.00 in 0.00 W/m2
01:06 71.6 °F 48.6 °F 29.97 in East 6.0 mph 8.0 mph 44 % 0.00 in 0.00 W/m2
01:11 71.6 °F 48.6 °F 29.97 in East 6.0 mph 11.0 mph 44 % 0.00 in 0.00 W/m2
01:16 71.5 °F 48.5 °F 29.96 in ESE 1.0 mph 6.0 mph 44 % 0.00 in 0.00 W/m2
01:21 71.4 °F 47.8 °F 29.96 in ESE 8.0 mph 8.0 mph 43 % 0.00 in 0.00 W/m2
01:26 71.4 °F 48.4 °F 29.97 in East 8.0 mph 11.0 mph 44 % 0.00 in 0.00 W/m2
01:31 71.3 °F 47.7 °F 29.97 in East 5.0 mph 9.0 mph 43 % 0.00 in 0.00 W/m2
01:36 71.3 °F 48.3 °F 29.97 in East 12.0 mph 12.0 mph 44 % 0.00 in 0.00 W/m2
01:41 71.2 °F 47.6 °F 29.97 in Calm   8.0 mph 43 % 0.00 in 0.00 W/m2
01:46 71.2 °F 47.6 °F 29.96 in ESE 2.0 mph 13.0 mph 43 % 0.00 in 0.00 W/m2
01:51 71.1 °F 47.5 °F 29.96 in East 8.0 mph 11.0 mph 43 % 0.00 in 0.00 W/m2
01:56 71.0 °F 47.4 °F 29.96 in Calm   8.0 mph 43 % 0.00 in 0.00 W/m2
02:01 71.0 °F 47.4 °F 29.96 in East 11.0 mph 14.0 mph 43 % 0.00 in 0.00 W/m2
02:06 70.9 °F 47.3 °F 29.96 in East 6.0 mph 9.0 mph 43 % 0.00 in 0.00 W/m2
02:11 70.8 °F 47.2 °F 29.96 in East 14.0 mph 14.0 mph 43 % 0.00 in 0.00 W/m2
02:16 70.8 °F 47.2 °F 29.96 in ESE 6.0 mph 14.0 mph 43 % 0.00 in 0.00 W/m2
02:21 70.7 °F 46.5 °F 29.96 in East 7.0 mph 11.0 mph 42 % 0.00 in 0.00 W/m2
02:26 70.6 °F 46.4 °F 29.96 in ESE 6.0 mph 15.0 mph 42 % 0.00 in 0.00 W/m2
02:31 70.5 °F 46.3 °F 29.96 in Calm   11.0 mph 42 % 0.00 in 0.00 W/m2
02:36 70.4 °F 46.2 °F 29.96 in East 5.0 mph 6.0 mph 42 % 0.00 in 0.00 W/m2
02:41 70.4 °F 46.2 °F 29.96 in ESE 11.0 mph 11.0 mph 42 % 0.00 in 0.00 W/m2
02:43 70.4 °F 46.2 °F 29.96 in ESE 1.0 mph 11.0 mph 42 % 0.00 in 0.00 W/m2
02:48 70.3 °F 46.2 °F 29.96 in Calm   11.0 mph 42 % 0.00 in 0.00 W/m2
02:53 70.2 °F 46.1 °F 29.96 in East 6.0 mph 11.0 mph 42 % 0.00 in 0.00 W/m2
02:58 70.1 °F 46.0 °F 29.95 in East 11.0 mph 11.0 mph 42 % 0.00 in 0.00 W/m2
03:03 70.0 °F 45.9 °F 29.96 in East 14.0 mph 14.0 mph 42 % 0.00 in 0.00 W/m2
03:08 69.9 °F 45.8 °F 29.95 in Calm   12.0 mph 42 % 0.00 in 0.00 W/m2
03:13 69.8 °F 45.1 °F 29.95 in East 2.0 mph 11.0 mph 41 % 0.00 in 0.00 W/m2
03:18 69.7 °F 45.0 °F 29.95 in East 9.0 mph 11.0 mph 41 % 0.00 in 0.00 W/m2
03:23 69.7 °F 45.6 °F 29.95 in East 7.0 mph 12.0 mph 42 % 0.00 in 0.00 W/m2
03:28 69.6 °F 44.9 °F 29.95 in ESE 7.0 mph 12.0 mph 41 % 0.00 in 0.00 W/m2
03:33 69.5 °F 44.8 °F 29.95 in ESE 2.0 mph 13.0 mph 41 % 0.00 in 0.00 W/m2
03:38 69.4 °F 44.7 °F 29.95 in East 2.0 mph 12.0 mph 41 % 0.00 in 0.00 W/m2
03:43 69.4 °F 44.7 °F 29.95 in ESE 5.0 mph 13.0 mph 41 % 0.00 in 0.00 W/m2
03:48 69.2 °F 44.5 °F 29.95 in East 10.0 mph 13.0 mph 41 % 0.00 in 0.00 W/m2
03:53 69.2 °F 44.5 °F 29.95 in East 4.0 mph 12.0 mph 41 % 0.00 in 0.00 W/m2
03:58 69.1 °F 44.4 °F 29.95 in ESE 9.0 mph 12.0 mph 41 % 0.00 in 0.00 W/m2
04:03 69.0 °F 44.3 °F 29.95 in East 7.0 mph 12.0 mph 41 % 0.00 in 0.00 W/m2
04:08 69.0 °F 44.3 °F 29.95 in East 7.0 mph 14.0 mph 41 % 0.00 in 0.00 W/m2
04:13 68.8 °F 43.5 °F 29.95 in ESE 2.0 mph 12.0 mph 40 % 0.00 in 0.00 W/m2
04:18 68.8 °F 43.5 °F 29.94 in ESE 2.0 mph 16.0 mph 40 % 0.00 in 0.00 W/m2
04:24 68.8 °F 43.5 °F 29.94 in East 8.0 mph 14.0 mph 40 % 0.00 in 0.00 W/m2
04:29 68.7 °F 43.4 °F 29.94 in ESE 6.0 mph 11.0 mph 40 % 0.00 in 0.00 W/m2
04:33 68.7 °F 43.4 °F 29.95 in Calm   11.0 mph 40 % 0.00 in 0.00 W/m2
04:39 68.6 °F 43.3 °F 29.95 in East 11.0 mph 11.0 mph 40 % 0.00 in 0.00 W/m2
04:44 68.6 °F 42.7 °F 29.95 in East 5.0 mph 15.0 mph 39 % 0.00 in 0.00 W/m2
04:49 68.6 °F 42.7 °F 29.95 in East 5.0 mph 11.0 mph 39 % 0.00 in 0.00 W/m2
04:54 68.5 °F 43.2 °F 29.95 in ESE 6.0 mph 13.0 mph 40 % 0.00 in 0.00 W/m2
04:59 68.5 °F 42.6 °F 29.95 in ESE 5.0 mph 12.0 mph 39 % 0.00 in 0.00 W/m2
05:04 68.5 °F 42.6 °F 29.94 in ESE 9.0 mph 11.0 mph 39 % 0.00 in 0.00 W/m2
05:09 68.4 °F 42.5 °F 29.94 in East 7.0 mph 11.0 mph 39 % 0.00 in 0.00 W/m2
05:14 68.4 °F 42.5 °F 29.95 in East 5.0 mph 11.0 mph 39 % 0.00 in 0.00 W/m2
05:19 68.3 °F 42.4 °F 29.94 in East 5.0 mph 11.0 mph 39 % 0.00 in 0.00 W/m2
05:24 68.3 °F 42.4 °F 29.95 in ESE 6.0 mph 13.0 mph 39 % 0.00 in 0.00 W/m2
05:29 68.2 °F 42.3 °F 29.94 in East 5.0 mph 15.0 mph 39 % 0.00 in 0.00 W/m2
05:34 68.2 °F 41.7 °F 29.94 in East 7.0 mph 11.0 mph 38 % 0.00 in 0.00 W/m2
05:39 68.1 °F 41.6 °F 29.94 in East 6.0 mph 11.0 mph 38 % 0.00 in 0.00 W/m2
05:44 68.1 °F 41.6 °F 29.94 in East 6.0 mph 9.0 mph 38 % 0.00 in 0.00 W/m2
05:49 68.1 °F 41.6 °F 29.95 in ESE 5.0 mph 11.0 mph 38 % 0.00 in 0.00 W/m2
05:54 68.0 °F 41.5 °F 29.95 in East 7.0 mph 12.0 mph 38 % 0.00 in 0.00 W/m2
05:59 68.0 °F 41.5 °F 29.95 in East 11.0 mph 13.0 mph 38 % 0.00 in 5.00 W/m2
06:04 68.0 °F 41.5 °F 29.95 in East 9.0 mph 11.0 mph 38 % 0.00 in 7.00 W/m2
06:09 68.0 °F 41.5 °F 29.95 in ESE 8.0 mph 13.0 mph 38 % 0.00 in 9.00 W/m2
06:14 68.0 °F 41.5 °F 29.95 in East 9.0 mph 11.0 mph 38 % 0.00 in 12.00 W/m2
06:19 68.0 °F 41.5 °F 29.95 in ESE 7.0 mph 12.0 mph 38 % 0.00 in 14.00 W/m2
06:24 68.0 °F 41.5 °F 29.95 in East 7.0 mph 13.0 mph 38 % 0.00 in 16.00 W/m2
06:29 68.0 °F 41.5 °F 29.95 in ESE 5.0 mph 14.0 mph 38 % 0.00 in 21.00 W/m2
06:34 68.0 °F 41.5 °F 29.95 in East 11.0 mph 13.0 mph 38 % 0.00 in 30.00 W/m2
06:39 68.0 °F 41.5 °F 29.95 in East 7.0 mph 15.0 mph 38 % 0.00 in 40.00 W/m2
06:44 68.1 °F 42.2 °F 29.95 in East 6.0 mph 14.0 mph 39 % 0.00 in 49.00 W/m2
06:49 68.1 °F 42.2 °F 29.95 in East 7.0 mph 12.0 mph 39 % 0.00 in 65.00 W/m2
06:54 68.1 °F 42.2 °F 29.95 in East 5.0 mph 11.0 mph 39 % 0.00 in 79.00 W/m2
06:59 68.1 °F 42.9 °F 29.95 in ESE 8.0 mph 14.0 mph 40 % 0.00 in 97.00 W/m2
07:04 68.1 °F 42.9 °F 29.95 in ESE 7.0 mph 11.0 mph 40 % 0.00 in 113.00 W/m2
07:09 68.1 °F 43.5 °F 29.95 in East 2.0 mph 11.0 mph 41 % 0.00 in 134.00 W/m2
07:14 68.2 °F 44.3 °F 29.95 in ESE 1.0 mph 11.0 mph 42 % 0.00 in 151.00 W/m2
07:19 68.2 °F 44.3 °F 29.95 in East 8.0 mph 13.0 mph 42 % 0.00 in 172.00 W/m2
07:24 68.3 °F 45.0 °F 29.95 in ESE 9.0 mph 14.0 mph 43 % 0.00 in 190.00 W/m2
07:25 68.3 °F 45.0 °F 29.95 in ESE 12.0 mph 14.0 mph 43 % 0.00 in 192.00 W/m2
07:29 68.3 °F 45.0 °F 29.95 in East 7.0 mph 15.0 mph 43 % 0.00 in 206.00 W/m2
07:35 68.4 °F 45.0 °F 29.95 in East 7.0 mph 12.0 mph 43 % 0.00 in 229.00 W/m2
07:40 68.5 °F 45.8 °F 29.95 in ESE 4.0 mph 13.0 mph 44 % 0.00 in 250.00 W/m2
07:45 68.6 °F 46.4 °F 29.96 in ESE 1.0 mph 11.0 mph 45 % 0.00 in 269.00 W/m2
07:50 68.7 °F 47.1 °F 29.96 in Calm   12.0 mph 46 % 0.00 in 287.00 W/m2
07:55 68.8 °F 47.8 °F 29.95 in Calm   9.0 mph 47 % 0.00 in 304.00 W/m2
08:00 68.9 °F 48.4 °F 29.96 in East 8.0 mph 9.0 mph 48 % 0.00 in 318.00 W/m2
08:05 69.1 °F 49.2 °F 29.95 in ESE 5.0 mph 12.0 mph 49 % 0.00 in 330.00 W/m2
08:10 69.3 °F 49.3 °F 29.96 in Calm   13.0 mph 49 % 0.00 in 352.00 W/m2
08:15 69.5 °F 49.5 °F 29.96 in East 4.0 mph 12.0 mph 49 % 0.00 in 367.00 W/m2
08:20 69.7 °F 50.2 °F 29.96 in Calm   13.0 mph 50 % 0.00 in 381.00 W/m2
08:25 70.0 °F 51.1 °F 29.96 in Calm   9.0 mph 51 % 0.00 in 399.00 W/m2
08:30 70.3 °F 51.9 °F 29.96 in ESE 8.0 mph 14.0 mph 52 % 0.00 in 415.00 W/m2
08:35 70.6 °F 53.2 °F 29.96 in ESE 2.0 mph 9.0 mph 54 % 0.00 in 431.00 W/m2
08:40 70.9 °F 53.4 °F 29.96 in Calm   6.0 mph 54 % 0.00 in 446.00 W/m2
08:45 71.4 °F 54.4 °F 29.96 in Calm   7.0 mph 55 % 0.00 in 461.00 W/m2
08:50 71.7 °F 55.2 °F 29.96 in Calm   6.0 mph 56 % 0.00 in 476.00 W/m2
08:55 72.0 °F 56.0 °F 29.96 in Calm   5.0 mph 57 % 0.00 in 492.00 W/m2
09:00 72.4 °F 56.3 °F 29.96 in Calm   7.0 mph 57 % 0.00 in 506.00 W/m2
09:05 72.8 °F 56.7 °F 29.96 in Calm   4.0 mph 57 % 0.00 in 522.00 W/m2
09:10 73.1 °F 57.0 °F 29.96 in Calm   5.0 mph 57 % 0.00 in 538.00 W/m2
09:15 73.4 °F 57.7 °F 29.96 in Calm   6.0 mph 58 % 0.00 in 552.00 W/m2
09:20 73.7 °F 57.5 °F 29.96 in East 2.0 mph 6.0 mph 57 % 0.00 in 566.00 W/m2
09:25 74.0 °F 57.3 °F 29.96 in Calm     56 % 0.00 in 578.00 W/m2
09:30 74.3 °F 57.6 °F 29.96 in Calm     56 % 0.00 in 592.00 W/m2
09:35 74.7 °F 58.5 °F 29.96 in Calm     57 % 0.00 in 608.00 W/m2
09:40 75.2 °F 58.9 °F 29.96 in Calm     57 % 0.00 in 621.00 W/m2
09:45 75.5 °F 58.2 °F 29.96 in Calm     55 % 0.00 in 635.00 W/m2
09:50 75.8 °F 54.7 °F 29.96 in Calm     48 % 0.00 in 650.00 W/m2
09:55 76.3 °F 56.3 °F 29.96 in Calm     50 % 0.00 in 664.00 W/m2
10:00 76.9 °F 55.2 °F 29.96 in Calm   4.0 mph 47 % 0.00 in 679.00 W/m2
10:05 77.4 °F 51.9 °F 29.96 in Calm   4.0 mph 41 % 0.00 in 687.00 W/m2
10:10 77.7 °F 52.2 °F 29.96 in Calm   2.0 mph 41 % 0.00 in 703.00 W/m2
10:15 78.0 °F 51.8 °F 29.96 in Calm   5.0 mph 40 % 0.00 in 714.00 W/m2
10:20 78.3 °F 52.0 °F 29.96 in East 1.0 mph 6.0 mph 40 % 0.00 in 726.00 W/m2
10:25 78.6 °F 49.4 °F 29.96 in Calm   5.0 mph 36 % 0.00 in 738.00 W/m2
10:30 78.9 °F 50.4 °F 29.96 in Calm   5.0 mph 37 % 0.00 in 751.00 W/m2
10:35 79.2 °F 51.4 °F 29.96 in Calm   3.0 mph 38 % 0.00 in 761.00 W/m2
10:40 79.5 °F 52.4 °F 29.96 in East 1.0 mph 4.0 mph 39 % 0.00 in 770.00 W/m2
10:45 79.9 °F 54.1 °F 29.96 in East 2.0 mph 4.0 mph 41 % 0.00 in 780.00 W/m2
10:50 80.2 °F 53.7 °F 29.96 in Calm   4.0 mph 40 % 0.00 in 791.00 W/m2
10:56 80.5 °F 54.7 °F 29.96 in North 1.0 mph 4.0 mph 41 % 0.00 in 803.00 W/m2
11:01 80.8 °F 53.6 °F 29.96 in West 1.0 mph 5.0 mph 39 % 0.00 in 810.00 W/m2
11:06 81.1 °F 50.9 °F 29.96 in Calm   4.0 mph 35 % 0.00 in 817.00 W/m2
11:11 81.4 °F 51.2 °F 29.96 in Calm   3.0 mph 35 % 0.00 in 826.00 W/m2
11:16 81.6 °F 53.6 °F 29.96 in West 3.0 mph 5.0 mph 38 % 0.00 in 837.00 W/m2
11:21 81.9 °F 52.3 °F 29.96 in Calm     36 % 0.00 in 844.00 W/m2
11:26 82.1 °F 51.0 °F 29.96 in West 4.0 mph 6.0 mph 34 % 0.00 in 854.00 W/m2
11:31 82.3 °F 52.7 °F 29.96 in Calm     36 % 0.00 in 860.00 W/m2
11:36 82.5 °F 51.3 °F 29.96 in Calm     34 % 0.00 in 867.00 W/m2
11:41 82.8 °F 50.8 °F 29.96 in Calm     33 % 0.00 in 872.00 W/m2
11:46 83.2 °F 51.1 °F 29.96 in Calm   1.0 mph 33 % 0.00 in 882.00 W/m2
11:51 83.5 °F 49.7 °F 29.95 in Calm     31 % 0.00 in 886.00 W/m2
11:56 83.8 °F 50.0 °F 29.95 in Calm     31 % 0.00 in 889.00 W/m2
12:01 83.9 °F 46.4 °F 29.95 in WNW 1.0 mph 3.0 mph 27 % 0.00 in 893.00 W/m2
12:06 84.2 °F 49.4 °F 29.95 in WNW 3.0 mph 3.0 mph 30 % 0.00 in 904.00 W/m2
12:11 84.5 °F 50.6 °F 29.95 in Calm     31 % 0.00 in 902.00 W/m2
12:16 84.8 °F 51.7 °F 29.95 in Calm     32 % 0.00 in 905.00 W/m2
12:21 85.2 °F 49.4 °F 29.95 in Calm   1.0 mph 29 % 0.00 in 909.00 W/m2
12:26 85.4 °F 48.6 °F 29.95 in Calm   1.0 mph 28 % 0.00 in 911.00 W/m2
12:31 85.8 °F 50.8 °F 29.95 in Calm   7.0 mph 30 % 0.00 in 912.00 W/m2
12:36 86.0 °F 50.1 °F 29.95 in Calm   3.0 mph 29 % 0.00 in 918.00 W/m2
12:41 86.2 °F 50.2 °F 29.95 in Calm     29 % 0.00 in 919.00 W/m2
12:46 86.4 °F 49.5 °F 29.95 in Calm   3.0 mph 28 % 0.00 in 919.00 W/m2
12:51 86.6 °F 49.7 °F 29.95 in West 1.0 mph 1.0 mph 28 % 0.00 in 921.00 W/m2
12:56 86.7 °F 47.8 °F 29.94 in West 2.0 mph 5.0 mph 26 % 0.00 in 919.00 W/m2
13:01 87.1 °F 49.1 °F 29.94 in West 5.0 mph 6.0 mph 27 % 0.00 in 923.00 W/m2
13:06 87.4 °F 50.3 °F 29.94 in NW 3.0 mph 8.0 mph 28 % 0.00 in 921.00 W/m2
13:07 87.4 °F 50.3 °F 29.94 in Calm   8.0 mph 28 % 0.00 in 923.00 W/m2
13:12 87.5 °F 49.4 °F 29.94 in Calm     27 % 0.00 in 918.00 W/m2
13:15 87.5 °F 50.4 °F 29.94 in Calm   1.0 mph 28 % 0.00 in 918.00 W/m2
13:20 87.7 °F 49.6 °F 29.94 in WNW 4.0 mph 9.0 mph 27 % 0.00 in 919.00 W/m2
13:25 87.9 °F 50.8 °F 29.94 in Calm   6.0 mph 28 % 0.00 in 919.00 W/m2
13:30 88.1 °F 50.0 °F 29.93 in West 7.0 mph 12.0 mph 27 % 0.00 in 916.00 W/m2
13:35 88.3 °F 51.1 °F 29.94 in Calm   7.0 mph 28 % 0.00 in 916.00 W/m2
13:40 88.4 °F 51.2 °F 29.93 in WNW 1.0 mph 6.0 mph 28 % 0.00 in 909.00 W/m2
13:45 88.4 °F 51.2 °F 29.93 in WNW 2.0 mph 5.0 mph 28 % 0.00 in 907.00 W/m2
13:50 88.6 °F 51.4 °F 29.93 in Calm   7.0 mph 28 % 0.00 in 905.00 W/m2
13:55 88.6 °F 51.4 °F 29.93 in SW 9.0 mph 10.0 mph 28 % 0.00 in 905.00 W/m2
14:00 88.7 °F 50.5 °F 29.93 in SW 5.0 mph 8.0 mph 27 % 0.00 in 896.00 W/m2
14:05 88.8 °F 48.5 °F 29.93 in Calm   6.0 mph 25 % 0.00 in 896.00 W/m2
14:11 88.4 °F 51.2 °F 29.93 in WNW 5.0 mph 6.0 mph 28 % 0.00 in 891.00 W/m2
14:15 88.4 °F 49.2 °F 29.93 in West 1.0 mph 11.0 mph 26 % 0.00 in 888.00 W/m2
14:20 88.5 °F 49.3 °F 29.93 in Calm   8.0 mph 26 % 0.00 in 882.00 W/m2
14:25 88.5 °F 49.3 °F 29.93 in Calm   3.0 mph 26 % 0.00 in 874.00 W/m2
14:30 88.5 °F 49.3 °F 29.92 in West 3.0 mph 5.0 mph 26 % 0.00 in 870.00 W/m2
14:36 88.5 °F 50.3 °F 29.92 in Calm   7.0 mph 27 % 0.00 in 867.00 W/m2
14:41 88.4 °F 50.2 °F 29.92 in West 1.0 mph 5.0 mph 27 % 0.00 in 856.00 W/m2
14:46 88.3 °F 49.1 °F 29.92 in Calm     26 % 0.00 in 849.00 W/m2
14:51 88.2 °F 49.0 °F 29.92 in West 2.0 mph 8.0 mph 26 % 0.00 in 842.00 W/m2
14:56 88.3 °F 51.1 °F 29.92 in Calm   11.0 mph 28 % 0.00 in 831.00 W/m2
15:01 88.6 °F 50.4 °F 29.92 in WSW 4.0 mph 4.0 mph 27 % 0.00 in 823.00 W/m2
15:06 88.8 °F 50.5 °F 29.92 in WNW 7.0 mph 9.0 mph 27 % 0.00 in 819.00 W/m2
15:11 88.9 °F 48.6 °F 29.92 in Calm   2.0 mph 25 % 0.00 in 805.00 W/m2
15:16 88.9 °F 50.6 °F 29.92 in Calm   1.0 mph 27 % 0.00 in 798.00 W/m2
15:21 88.6 °F 50.4 °F 29.92 in WNW 8.0 mph 9.0 mph 27 % 0.00 in 788.00 W/m2
15:26 88.3 °F 50.1 °F 29.91 in Calm     27 % 0.00 in 775.00 W/m2
15:31 88.2 °F 49.0 °F 29.91 in Calm     26 % 0.00 in 772.00 W/m2
15:36 88.0 °F 48.8 °F 29.91 in WNW 1.0 mph 1.0 mph 26 % 0.00 in 756.00 W/m2
15:41 87.8 °F 48.7 °F 29.91 in Calm     26 % 0.00 in 744.00 W/m2
15:46 87.9 °F 48.8 °F 29.91 in West 5.0 mph 7.0 mph 26 % 0.00 in 737.00 W/m2
15:51 88.0 °F 50.8 °F 29.91 in Calm   1.0 mph 28 % 0.00 in 724.00 W/m2
15:56 88.0 °F 48.8 °F 29.91 in Calm   1.0 mph 26 % 0.00 in 712.00 W/m2
16:01 87.8 °F 48.7 °F 29.90 in Calm     26 % 0.00 in 703.00 W/m2
16:06 87.7 °F 49.6 °F 29.90 in West 3.0 mph 4.0 mph 27 % 0.00 in 687.00 W/m2
16:11 87.6 °F 49.5 °F 29.90 in Calm   2.0 mph 27 % 0.00 in 677.00 W/m2
16:16 87.6 °F 49.5 °F 29.90 in NW 3.0 mph 3.0 mph 27 % 0.00 in 663.00 W/m2
16:21 87.5 °F 49.4 °F 29.90 in WNW 2.0 mph 2.0 mph 27 % 0.00 in 650.00 W/m2
16:26 87.5 °F 50.4 °F 29.90 in Calm   1.0 mph 28 % 0.00 in 636.00 W/m2
16:31 87.5 °F 51.4 °F 29.89 in West 5.0 mph 7.0 mph 29 % 0.00 in 624.00 W/m2
16:36 87.6 °F 48.5 °F 29.89 in Calm   4.0 mph 26 % 0.00 in 613.00 W/m2
16:41 87.7 °F 47.5 °F 29.89 in Calm   1.0 mph 25 % 0.00 in 598.00 W/m2
16:46 87.9 °F 47.7 °F 29.89 in Calm     25 % 0.00 in 584.00 W/m2
16:51 88.1 °F 50.9 °F 29.89 in West 1.0 mph 3.0 mph 28 % 0.00 in 568.00 W/m2
16:56 88.1 °F 50.9 °F 29.89 in WSW 5.0 mph 6.0 mph 28 % 0.00 in 555.00 W/m2
17:01 88.1 °F 51.9 °F 29.89 in NW 2.0 mph 2.0 mph 29 % 0.00 in 538.00 W/m2
17:06 87.9 °F 48.8 °F 29.89 in NW 3.0 mph 5.0 mph 26 % 0.00 in 524.00 W/m2
17:11 87.9 °F 49.8 °F 29.88 in Calm     27 % 0.00 in 512.00 W/m2
17:16 87.8 °F 49.7 °F 29.88 in West 5.0 mph 5.0 mph 27 % 0.00 in 494.00 W/m2
17:21 87.9 °F 50.8 °F 29.88 in Calm   1.0 mph 28 % 0.00 in 478.00 W/m2
17:26 87.8 °F 48.7 °F 29.88 in Calm   1.0 mph 26 % 0.00 in 464.00 W/m2
17:31 87.6 °F 50.5 °F 29.88 in West 3.0 mph 3.0 mph 28 % 0.00 in 446.00 W/m2
17:36 87.5 °F 51.4 °F 29.88 in WNW 6.0 mph 7.0 mph 29 % 0.00 in 427.00 W/m2
17:41 87.4 °F 52.2 °F 29.88 in Calm     30 % 0.00 in 413.00 W/m2
17:46 87.3 °F 53.0 °F 29.88 in WNW 3.0 mph 3.0 mph 31 % 0.00 in 403.00 W/m2
17:51 87.1 °F 51.0 °F 29.88 in Calm   7.0 mph 29 % 0.00 in 388.00 W/m2
17:56 87.0 °F 50.9 °F 29.88 in Calm   4.0 mph 29 % 0.00 in 371.00 W/m2
18:01 86.8 °F 50.8 °F 29.88 in WNW 3.0 mph 3.0 mph 29 % 0.00 in 357.00 W/m2
18:06 86.8 °F 51.7 °F 29.88 in Calm   2.0 mph 30 % 0.00 in 339.00 W/m2
18:11 86.8 °F 52.6 °F 29.88 in Calm   2.0 mph 31 % 0.00 in 322.00 W/m2
18:16 86.6 °F 52.4 °F 29.88 in Calm   6.0 mph 31 % 0.00 in 306.00 W/m2
18:21 86.4 °F 52.2 °F 29.88 in Calm   1.0 mph 31 % 0.00 in 294.00 W/m2
18:26 86.3 °F 53.0 °F 29.88 in Calm     32 % 0.00 in 279.00 W/m2
18:31 86.2 °F 52.9 °F 29.87 in Calm   3.0 mph 32 % 0.00 in 260.00 W/m2
18:36 86.1 °F 52.8 °F 29.87 in West 3.0 mph 3.0 mph 32 % 0.00 in 246.00 W/m2
18:41 85.9 °F 54.3 °F 29.87 in Calm   5.0 mph 34 % 0.00 in 230.00 W/m2
18:46 85.7 °F 54.1 °F 29.87 in Calm   1.0 mph 34 % 0.00 in 214.00 W/m2
18:51 85.5 °F 54.0 °F 29.87 in Calm   1.0 mph 34 % 0.00 in 199.00 W/m2
18:56 85.1 °F 54.4 °F 29.87 in Calm   1.0 mph 35 % 0.00 in 181.00 W/m2
18:57 85.0 °F 54.3 °F 29.87 in Calm   1.0 mph 35 % 0.00 in 179.00 W/m2
19:02 84.7 °F 54.8 °F 29.87 in Calm   1.0 mph 36 % 0.00 in 165.00 W/m2
19:07 84.2 °F 54.4 °F 29.87 in Calm   2.0 mph 36 % 0.00 in 146.00 W/m2
19:12 83.8 °F 54.0 °F 29.87 in WNW 1.0 mph 1.0 mph 36 % 0.00 in 125.00 W/m2
19:17 83.4 °F 54.4 °F 29.87 in Calm   1.0 mph 37 % 0.00 in 109.00 W/m2
19:22 82.9 °F 54.7 °F 29.87 in Calm     38 % 0.00 in 90.00 W/m2
19:27 82.4 °F 53.5 °F 29.88 in Calm   1.0 mph 37 % 0.00 in 74.00 W/m2
19:32 82.1 °F 54.0 °F 29.87 in Calm   1.0 mph 38 % 0.00 in 60.00 W/m2
19:37 81.7 °F 54.4 °F 29.88 in Calm   1.0 mph 39 % 0.00 in 46.00 W/m2
19:42 81.3 °F 54.7 °F 29.88 in Calm     40 % 0.00 in 37.00 W/m2
19:47 80.9 °F 54.3 °F 29.88 in Calm   1.0 mph 40 % 0.00 in 26.00 W/m2
19:52 80.5 °F 54.0 °F 29.88 in Calm   1.0 mph 40 % 0.00 in 19.00 W/m2
19:57 80.0 °F 54.2 °F 29.88 in Calm   1.0 mph 41 % 0.00 in 16.00 W/m2
20:02 79.4 °F 53.7 °F 29.88 in Calm   4.0 mph 41 % 0.00 in 12.00 W/m2
20:07 79.0 °F 52.6 °F 29.88 in Calm   1.0 mph 40 % 0.00 in 11.00 W/m2
20:12 78.6 °F 52.3 °F 29.87 in WNW 1.0 mph 1.0 mph 40 % 0.00 in 9.00 W/m2
20:17 78.2 °F 51.9 °F 29.88 in Calm   1.0 mph 40 % 0.00 in 7.00 W/m2
20:22 77.8 °F 51.6 °F 29.88 in Calm   4.0 mph 40 % 0.00 in 5.00 W/m2
20:27 77.5 °F 51.3 °F 29.88 in Calm   2.0 mph 40 % 0.00 in 0.00 W/m2
20:32 77.1 °F 50.9 °F 29.88 in Calm   1.0 mph 40 % 0.00 in 0.00 W/m2
20:37 76.8 °F 50.7 °F 29.88 in Calm   3.0 mph 40 % 0.00 in 0.00 W/m2
20:42 76.6 °F 50.5 °F 29.88 in Calm     40 % 0.00 in 0.00 W/m2
20:47 76.3 °F 50.2 °F 29.88 in Calm   3.0 mph 40 % 0.00 in 0.00 W/m2
20:53 76.1 °F 49.4 °F 29.88 in Calm   1.0 mph 39 % 0.00 in 0.00 W/m2
20:58 75.9 °F 49.2 °F 29.88 in Calm   1.0 mph 39 % 0.00 in 0.00 W/m2
21:03 75.8 °F 49.1 °F 29.88 in Calm   1.0 mph 39 % 0.00 in 0.00 W/m2
21:08 75.7 °F 49.0 °F 29.88 in Calm   1.0 mph 39 % 0.00 in 0.00 W/m2
21:13 75.5 °F 48.8 °F 29.88 in Calm     39 % 0.00 in 0.00 W/m2
21:18 75.4 °F 48.8 °F 29.89 in Calm     39 % 0.00 in 0.00 W/m2
21:23 75.3 °F 48.7 °F 29.89 in Calm     39 % 0.00 in 0.00 W/m2
21:28 75.2 °F 48.6 °F 29.89 in Calm     39 % 0.00 in 0.00 W/m2
21:33 75.2 °F 48.6 °F 29.89 in Calm     39 % 0.00 in 0.00 W/m2
21:38 75.1 °F 48.5 °F 29.89 in Calm     39 % 0.00 in 0.00 W/m2
21:43 75.0 °F 48.4 °F 29.89 in Calm     39 % 0.00 in 0.00 W/m2
21:48 74.9 °F 48.3 °F 29.89 in Calm     39 % 0.00 in 0.00 W/m2
21:53 74.9 °F 48.3 °F 29.89 in Calm   1.0 mph 39 % 0.00 in 0.00 W/m2
21:58 74.9 °F 48.3 °F 29.89 in Calm   1.0 mph 39 % 0.00 in 0.00 W/m2
22:03 74.8 °F 48.2 °F 29.89 in Calm   1.0 mph 39 % 0.00 in 0.00 W/m2
22:08 74.7 °F 48.1 °F 29.89 in West 1.0 mph 1.0 mph 39 % 0.00 in 0.00 W/m2
22:13 74.6 °F 48.7 °F 29.89 in Calm   3.0 mph 40 % 0.00 in 0.00 W/m2
22:18 74.6 °F 48.0 °F 29.89 in West 4.0 mph 5.0 mph 39 % 0.00 in 0.00 W/m2
22:28 74.5 °F 48.6 °F 29.89 in West 1.0 mph 5.0 mph 40 % 0.00 in 0.00 W/m2
22:33 74.4 °F 49.2 °F 29.89 in Calm   5.0 mph 41 % 0.00 in 0.00 W/m2
22:38 74.4 °F 49.2 °F 29.89 in Calm   7.0 mph 41 % 0.00 in 0.00 W/m2
22:43 74.4 °F 49.8 °F 29.89 in ESE 4.0 mph 7.0 mph 42 % 0.00 in 0.00 W/m2
22:48 74.4 °F 49.8 °F 29.89 in ESE 2.0 mph 7.0 mph 42 % 0.00 in 0.00 W/m2
22:53 74.3 °F 49.8 °F 29.89 in ESE 2.0 mph 8.0 mph 42 % 0.00 in 0.00 W/m2
22:58 74.3 °F 49.8 °F 29.89 in ESE 5.0 mph 8.0 mph 42 % 0.00 in 0.00 W/m2
23:03 74.3 °F 49.8 °F 29.89 in ESE 6.0 mph 9.0 mph 42 % 0.00 in 0.00 W/m2
23:08 74.3 °F 49.8 °F 29.89 in Calm   8.0 mph 42 % 0.00 in 0.00 W/m2
23:13 74.3 °F 49.8 °F 29.89 in Calm   6.0 mph 42 % 0.00 in 0.00 W/m2
23:18 74.2 °F 49.7 °F 29.89 in East 2.0 mph 7.0 mph 42 % 0.00 in 0.00 W/m2
23:23 74.3 °F 49.8 °F 29.89 in East 2.0 mph 8.0 mph 42 % 0.00 in 0.00 W/m2
23:28 74.2 °F 50.3 °F 29.89 in ESE 4.0 mph 9.0 mph 43 % 0.00 in 0.00 W/m2
23:33 74.1 °F 50.2 °F 29.89 in ESE 4.0 mph 8.0 mph 43 % 0.00 in 0.00 W/m2
23:38 74.1 °F 50.2 °F 29.89 in ESE 4.0 mph 11.0 mph 43 % 0.00 in 0.00 W/m2
23:43 74.0 °F 50.1 °F 29.89 in ESE 1.0 mph 9.0 mph 43 % 0.00 in 0.00 W/m2
23:48 74.0 °F 50.1 °F 29.89 in ESE 1.0 mph 9.0 mph 43 % 0.00 in 0.00 W/m2
23:53 73.9 °F 50.0 °F 29.89 in East 5.0 mph 9.0 mph 43 % 0.00 in 0.00 W/m2
23:58 73.9 °F 50.0 °F 29.89 in ESE 4.0 mph 11.0 mph 43 % 0.00 in 0.00 W/m2
Juneau County Weather
Compliments of Weather Underground - 4.5 mb
 WU-history PHP script courtesy of   Juneau County Weather.
powered by Cumulus v1.9.3 (1059)
Ambient Weather VWS v14.00
Top Contact Website Map Copyright © 2007 - 2018 Foresthillweather.com Never base important decisions on this or any weather information obtained from the Internet